Terminal Aerodrome Forecast
Issued by NWS

Home | Current Version | Previous Version | Text Only | Print | Product List | Glossary On
Versions: 1 2 3 4 5 6 7 8 9 10 11 12
000
FTUS46 KSTO 230500
TAFSMF
TAF
KSMF 230535Z 2306/2406 15010KT P6SM SKC
     FM231200 15004KT P6SM SKC
     FM232300 18006KT P6SM SKC=

USA.gov is the U.S. government's official web portal to all federal, state and local government web resources and services.